Regional Weather Roundup
Issued by NWS

Home | Current Version | Previous Version | Text Only | Print | Product List | Glossary Off
Versions: 1 2 3 4 5 6 7 8 9 10 11 12 13 14 15 16 17 18 19 20 21 22 23 24 25 26 27 28 29 30 31 32 33 34 35 36 37 38 39 40 41 42 43 44 45 46 47 48 49 50

000
ASUS43 KDTX 222001
RWRMI
MICHIGAN HOURLY REGIONAL WEATHER ROUNDUP
NATIONAL WEATHER SERVICE DETROIT/PONTIAC MI
400 PM EDT TUE APR 22 2014

NOTE: "FAIR" INDICATES FEW OR NO CLOUDS BELOW 12,000 FEET WITH NO
SIGNIFICANT WEATHER AND/OR OBSTRUCTION TO VISIBILITY.

MIZ047>049-052>055-059>063-066>070-074>076-081>083-222100-
SOUTHEAST LOWER MICHIGAN

CITY           SKY/WX    TMP DP  RH WIND       PRES   REMARKS
ADRIAN         PTSUNNY   54  32  43 NW15G23   29.81S
ALMA           CLOUDY    44  30  59 NW16G28   29.87R
ANN ARBOR      CLOUDY    52  33  48 NW17G26   29.79S
BAD AXE        CLOUDY    42  34  71 NW15G24   29.77R
CARO           CLOUDY    45  35  69 NW20G29   29.80R
DETROIT CITY   CLOUDY    54  32  43 NW14G25   29.77S
DETROIT        CLOUDY    53  33  46 W21G28    29.79R
FLINT          CLOUDY    49  34  56 NW23G32   29.82R
GROSSE ILE     PTSUNNY   55  32  41 NW16      29.77R
HILLSDALE      PTSUNNY   53  32  45 NW17G30   29.82S
HOWELL         PTSUNNY   49  33  54 NW22G29   29.81R

CITY           SKY/WX    TMP DP  RH WIND       PRES   REMARKS
JACKSON        CLOUDY    51  33  50 NW17G26   29.82S
LAMBERTVILLE   MOSUNNY   57  32  38 W14G22    29.80R
LANSING        CLOUDY    48  32  53 NW16G28   29.86R
LAPEER         CLOUDY    46  35  63 NW12G18   29.79R
MASON          CLOUDY    49  34  56 NW15G21   29.84R
MONROE         PTSUNNY   57  36  44 NW18G28   29.78R
MT. CLEMENS    CLOUDY    51  34  53 NW15G23   29.75S
PONTIAC        CLOUDY    49  33  54 NW18G26   29.78R
PORT HOPE        N/A     44  34  67 W12G24    29.74R
PORT HURON     CLOUDY    48  37  66 NW13G21   29.76R
TRI CITIES     CLOUDY    46  32  58 NW24G35   29.83R
TROY           CLOUDY    51  32  49 NW16G28   29.79R
SAGINAW HB     CLOUDY    46  32  57 NW22G29   29.81R
YPSILANTI      CLOUDY    56  34  43 NW15G28   29.79S
$$
MIZ043>046-050>051-056>058-064>065-071>073-077>080-222100-
SOUTHWEST LOWER MICHIGAN

CITY           SKY/WX    TMP DP  RH WIND       PRES   REMARKS
BATTLE CREEK   PTSUNNY   52  33  48 NW22G31   29.88R
BENTON HARBOR  SUNNY     44  31  60 VRB7G22   29.97S
BIG RAPIDS     CLOUDY    43  30  59 NW15G25   29.90R
COLDWATER      CLOUDY    51  33  50 NW20G28   29.86R
FREMONT        CLOUDY    44  28  54 NW21G28   29.93R
HOLLAND        CLOUDY    49  30  48 NW16G31   29.95R
GRAND RAPIDS   PTSUNNY   47  31  53 NW18G30   29.92R
IONIA          CLOUDY    46  32  57 NW14G28   29.88R
KALAMAZOO      PTSUNNY   53  32  44 NW18G32   29.89S
LUDINGTON      CLOUDY    43  30  60 N13G21    29.97R
MARSHALL       CLOUDY    51  33  50 NW17G24   29.85R
MOUNT PLEASANT CLOUDY    43  31  63 NW14G26   29.87R
MUSKEGON       PTSUNNY   48  28  46 N26G33    29.96R
SOUTH HAVEN    SUNNY     45  32  60 N15G23    29.97R
$$
MIZ016>042-222100-
NORTHERN LOWER MICHIGAN

CITY           SKY/WX    TMP DP  RH WIND       PRES   REMARKS
ALPENA         CLOUDY    41  33  73 NW15      29.77R
BEAVER ISLAND  CLOUDY    38  31  73 NW12G21   29.91R WCI  31
BELLAIRE       LGT SNOW  37  33  87 NW7       29.92R WCI  31
CADILLAC       FLURRIES  37  33  84 NW18G28   29.89R WCI  27
CHARLEVOIX     CLOUDY    37  33  83 NW12G17   29.94R WCI  30
FRANKFORT      CLOUDY    40  30  66 N12G20    29.96R WCI  34
GAYLORD        LGT SNOW  33  31  92 NW13G29   29.84R FOG     WCI  24
GRAYLING       FLURRIES  37  34  89 NW20G29   29.85R WCI  27
HARBOR SPRINGS CLOUDY    39  32  74 W13G26    29.87R WCI  32
HOUGHTON LAKE  CLOUDY    37  30  75 NW20G33   29.85R WCI  27
MANISTEE       CLOUDY    43  28  56 N15G25    29.97R
OSCODA         CLOUDY    43  33  66 NW20G30   29.75R
PELLSTON       PTSUNNY   41  30  65 NW25G35   29.86R
ROGERS CITY    CLOUDY    42  33  70 NW23G36   29.79R
TRAVERSE CITY  FLURRIES  38  31  76 NW15G24   29.93R WCI  29
$$
MIZ007>008-015-222100-
EASTERN UPPER MICHIGAN

CITY           SKY/WX    TMP DP  RH WIND       PRES   REMARKS
KINROSS        CLOUDY    39  32  75 NW28G35   29.81R WCI  28
MACKINAC ISLAN CLOUDY    39  31  73 NW17G26   29.83R WCI  30
NEWBERRY       CLOUDY    34  29  82 NW16G23   29.90R WCI  24
S. S. MARIE    CLOUDY    38  29  70 NW17G31   29.82R WCI  28
MUNISING         N/A     35  29  78 N17G28    29.99R WCI  25
$$
MIZ004>006-011>014-085-222100-
CENTRAL UPPER MICHIGAN

CITY           SKY/WX    TMP DP  RH WIND       PRES   REMARKS
MANISTIQUE     CLOUDY    39  29  66 NW22G32   29.93S WCI  29
ESCANABA       CLOUDY    43  27  52 NW15G24   29.96S
MENOMINEE      CLOUDY    45  25  45 N15G29    29.98R
$$
MIZ001>003-009>011-084-222100-
WESTERN UPPER MICHIGAN

CITY           SKY/WX    TMP DP  RH WIND       PRES   REMARKS
IRON MOUNTAIN  CLOUDY    42  26  53 NW17G24   29.98S
HOUGHTON       CLOUDY    36  26  67 NW15      30.04R WCI  27
COPPER HARBOR    N/A     35  29  78 N14       30.04R WCI  26
IRONWOOD       PTSUNNY   45  27  49 N12G17    30.05R
$$

ABBREVIATIONS USED IN REMARKS
   TC - TEMPERATURE IN CELSIUS
  WCI - WIND CHILL INDEX
   HX - HEAT INDEX
  VSB - VISIBILITY




USA.gov is the U.S. government's official web portal to all federal, state and local government web resources and services.